Alma, MI

9:34 PM EST on November 22, 2019 (GMT -0500)
Gratiot Community

Weather History for KAMN - June, 2019

Change the Weather History Date:

Friday, June 7, 2019

  Actual Average Record
Temperature  
Mean Temperature 67 °F -  
Max Temperature 80 °F 78 °F 93 °F (1988)
Min Temperature 54 °F 53 °F 37 °F (1998)
Cooling Degree Days 2    
Growing Degree Days 17 (Base 50)    
Moisture  
Dew Point 54 °F    
Average Humidity 65    
Maximum Humidity 96    
Minimum Humidity 27    
Precipitation  
Precipitation 0.00 in - - ()
Sea Level Pressure  
Sea Level Pressure 30.02 in    
Wind  
Wind Speed 3 mph (ENE)    
Max Wind Speed 15 mph    
Max Gust Speed 20 mph    
Visibility 8 miles    
Events Fog    
Averages and records for this station are not official NWS values.
T = Trace of Precipitation, MM = Missing Value Source: NWS Daily Summary

Daily Weather History Graph

Daily Weather History Graph

Search for Another Location

Airport or City:

Astronomy

Jun. 07, 2019 Rise Set
Actual Time 5:59 AM EDT 9:16 PM EDT
Civil Twilight 5:23 AM EDT 9:51 PM EDT
Nautical Twilight 4:38 AM EDT 10:37 PM EDT
Astronomical Twilight 3:42 AM EDT 11:33 PM EDT
Moon 10:16 AM EDT (6/7) 12:31 AM EDT (6/7)
Length of Visible Light 16h 27m
Length of Day
15h 17m
Waxing Crescent, 22% of the Moon is Illuminated
Jun 7
Waxing Crescent
Jun 10
First Quarter
Jun 17
Full
Jun 25
Last Quarter
Jul 2
New

Hourly Weather History & Observations

Time (EDT) Temp. Dew Point Humidity Pressure Visibility Wind Dir Wind Speed Gust Speed Precip Events Conditions
12:19 AM 61.9 °F 58.8 °F 90% 29.95 in 10.0 mi Calm Calm - N/A   Clear
12:37 AM 60.4 °F 57.9 °F 91% 29.95 in 7.0 mi Calm Calm - N/A   Clear
12:56 AM 60.1 °F 57.9 °F 93% 29.95 in 7.0 mi Calm Calm - N/A   Clear
1:15 AM 59.7 °F 57.6 °F 93% 29.96 in 7.0 mi Calm Calm - N/A   Clear
1:16 AM 59.5 °F 57.4 °F 93% 29.96 in 7.0 mi Calm Calm - N/A   Clear
1:35 AM 59.4 °F 57.6 °F 94% 29.96 in 7.0 mi Calm Calm - N/A   Clear
1:40 AM 60.1 °F 58.3 °F 94% 29.96 in 7.0 mi Calm Calm - N/A   Clear
1:58 AM 58.8 °F 56.8 °F 93% 29.96 in 5.0 mi Calm Calm - N/A   Clear
2:16 AM 58.3 °F 56.5 °F 94% 29.96 in 5.0 mi Calm Calm - N/A   Clear
2:35 AM 58.5 °F 56.7 °F 94% 29.96 in 3.0 mi Calm Calm - N/A   Clear
2:36 AM 58.3 °F 56.5 °F 94% 29.96 in 3.0 mi Calm Calm - N/A   Clear
2:55 AM 59.0 °F 57.4 °F 94% 29.96 in 0.8 mi Calm Calm - N/A   Mist
2:56 AM 59.0 °F 57.2 °F 94% 29.96 in 0.5 mi Calm Calm - N/A Fog Fog
3:19 AM 58.3 °F 56.7 °F 94% 29.96 in 0.5 mi Calm Calm - N/A Fog Fog
3:37 AM 57.7 °F 56.3 °F 95% 29.96 in 0.5 mi Calm Calm - N/A Fog Fog
3:55 AM 57.7 °F 56.1 °F 94% 29.96 in 0.2 mi Calm Calm - N/A Fog Fog
4:15 AM 55.2 °F 53.6 °F 94% 29.96 in 0.2 mi Calm Calm - N/A Fog Fog
4:16 AM 55.4 °F 53.8 °F 94% 29.96 in 0.2 mi Calm Calm - N/A Fog Fog
4:35 AM 58.5 °F 57.0 °F 95% 29.96 in 0.5 mi Calm Calm - N/A Fog Fog
4:58 AM 56.1 °F 54.5 °F 94% 29.97 in 0.2 mi Calm Calm - N/A Fog Fog
5:16 AM 55.9 °F 54.3 °F 94% 29.97 in 0.8 mi Calm Calm - N/A   Mostly Cloudy
5:35 AM 55.2 °F 53.8 °F 95% 29.97 in 0.5 mi Calm Calm - N/A Fog Fog
5:36 AM 55.0 °F 53.8 °F 96% 29.97 in 0.5 mi Calm Calm - N/A Fog Fog
5:55 AM 54.7 °F 53.6 °F 96% 29.98 in 0.2 mi Calm Calm - N/A Fog Fog
5:56 AM 54.7 °F 53.6 °F 96% 29.98 in 0.2 mi Calm Calm - N/A Fog Fog
6:19 AM 54.1 °F 52.9 °F 95% 29.99 in 0.2 mi Calm Calm - N/A Fog Fog
6:37 AM 54.7 °F 53.4 °F 96% 29.99 in 0.2 mi WNW 3.5 mph - N/A Fog Fog
6:55 AM 56.5 °F 55.2 °F 96% 30.00 in 2.5 mi Calm Calm - N/A   Scattered Clouds
7:15 AM 58.8 °F 57.7 °F 96% 30.01 in 2.5 mi Calm Calm - N/A   Clear
7:16 AM 59.0 °F 57.9 °F 96% 30.01 in 2.5 mi Calm Calm - N/A   Clear
7:35 AM 61.2 °F 59.9 °F 96% 30.01 in 4.0 mi Calm Calm - N/A   Clear
7:39 AM 61.7 °F 60.3 °F 95% 30.01 in 4.0 mi North 3.5 mph - N/A   Clear
7:58 AM 62.8 °F 61.5 °F 96% 30.02 in 5.0 mi Calm Calm - N/A   Clear
8:16 AM 64.2 °F 62.4 °F 94% 30.02 in 7.0 mi Calm Calm - N/A   Clear
8:35 AM 65.3 °F 63.1 °F 93% 30.03 in 7.0 mi Calm Calm - N/A   Clear
8:55 AM 66.4 °F 63.7 °F 91% 30.03 in 10.0 mi Calm Calm - N/A   Clear
9:19 AM 67.8 °F 64.0 °F 88% 30.03 in 10.0 mi NE 5.8 mph - N/A   Clear
9:37 AM 69.8 °F 63.7 °F 81% 30.03 in 10.0 mi ENE 4.6 mph - N/A   Clear
9:55 AM 71.6 °F 63.5 °F 76% 30.04 in 10.0 mi NNE 4.6 mph - N/A   Clear
9:56 AM 71.6 °F 63.3 °F 75% 30.04 in 10.0 mi NE 4.6 mph - N/A   Clear
10:15 AM 72.0 °F 63.0 °F 73% 30.04 in 10.0 mi NNE 5.8 mph - N/A   Clear
10:35 AM 73.6 °F 63.5 °F 71% 30.04 in 10.0 mi NE 5.8 mph - N/A   Clear
10:58 AM 74.3 °F 62.6 °F 67% 30.05 in 10.0 mi NE 5.8 mph - N/A   Clear
11:16 AM 75.2 °F 63.1 °F 66% 30.05 in 10.0 mi NE 5.8 mph - N/A   Clear
11:35 AM 75.9 °F 61.3 °F 60% 30.05 in 10.0 mi ENE 8.1 mph - N/A   Clear
11:36 AM 75.9 °F 61.3 °F 60% 30.05 in 10.0 mi ENE 8.1 mph - N/A   Clear
11:55 AM 76.1 °F 60.3 °F 58% 30.05 in 10.0 mi ENE 10.4 mph - N/A   Clear
11:56 AM 76.1 °F 60.4 °F 58% 30.05 in 10.0 mi NE 9.2 mph - N/A   Clear
12:19 PM 76.6 °F 57.9 °F 52% 30.06 in 10.0 mi East 8.1 mph - N/A   Clear
12:37 PM 77.2 °F 57.4 °F 50% 30.05 in 10.0 mi ENE 6.9 mph - N/A   Clear
12:55 PM 77.7 °F 55.9 °F 47% 30.05 in 10.0 mi ENE 6.9 mph 11.5 mph N/A   Clear
1:15 PM 77.9 °F 57.4 °F 49% 30.05 in 10.0 mi East 8.1 mph - N/A   Clear
1:35 PM 78.6 °F 56.5 °F 46% 30.04 in 10.0 mi ENE 9.2 mph - N/A   Scattered Clouds
1:58 PM 79.0 °F 52.0 °F 39% 30.03 in 10.0 mi NE 9.2 mph 16.1 mph N/A   Clear
2:16 PM 79.2 °F 51.8 °F 38% 30.03 in 10.0 mi ENE 8.1 mph 17.3 mph N/A   Clear
2:35 PM 79.7 °F 53.1 °F 40% 30.03 in 10.0 mi ENE 8.1 mph - N/A   Clear
2:36 PM 79.7 °F 52.9 °F 39% 30.03 in 10.0 mi ENE 8.1 mph - N/A   Clear
2:55 PM 79.9 °F 49.1 °F 34% 30.03 in 10.0 mi ENE 12.7 mph - N/A   Clear
3:19 PM 79.9 °F 46.9 °F 31% 30.03 in 10.0 mi ENE 11.5 mph - N/A   Clear
3:37 PM 80.8 °F 49.6 °F 34% 30.03 in 10.0 mi ENE 15.0 mph 19.6 mph N/A   Clear
3:55 PM 80.6 °F 46.0 °F 30% 30.02 in 10.0 mi NE 8.1 mph 19.6 mph N/A   Clear
3:56 PM 80.4 °F 45.7 °F 29% 30.02 in 10.0 mi NE 8.1 mph 19.6 mph N/A   Clear
4:15 PM 80.4 °F 47.7 °F 32% 30.02 in 10.0 mi NE 10.4 mph - N/A   Clear
4:16 PM 80.2 °F 46.9 °F 31% 30.02 in 10.0 mi NE 9.2 mph - N/A   Clear
4:35 PM 80.1 °F 44.2 °F 28% 30.03 in 10.0 mi ENE 10.4 mph 16.1 mph N/A   Clear
4:40 PM 80.1 °F 43.2 °F 27% 30.03 in 10.0 mi ENE 11.5 mph 17.3 mph N/A   Clear
4:58 PM 79.7 °F 45.0 °F 29% 30.03 in 10.0 mi East 10.4 mph 18.4 mph N/A   Clear
5:16 PM 79.7 °F 44.2 °F 28% 30.02 in 10.0 mi ENE 10.4 mph - N/A   Clear
5:35 PM 79.5 °F 47.7 °F 33% 30.02 in 10.0 mi ENE 12.7 mph - N/A   Clear
5:36 PM 79.5 °F 48.0 °F 33% 30.02 in 10.0 mi ENE 12.7 mph - N/A   Clear
5:55 PM 79.2 °F 49.1 °F 35% 30.03 in 10.0 mi ENE 10.4 mph - N/A   Clear
6:19 PM 78.8 °F 49.6 °F 36% 30.03 in 10.0 mi ENE 10.4 mph - N/A   Clear
6:37 PM 78.1 °F 49.3 °F 36% 30.03 in 10.0 mi ENE 11.5 mph - N/A   Scattered Clouds
6:55 PM 77.7 °F 48.6 °F 36% 30.03 in 10.0 mi ENE 12.7 mph - N/A   Scattered Clouds
6:56 PM 77.7 °F 48.4 °F 36% 30.03 in 10.0 mi ENE 11.5 mph - N/A   Scattered Clouds
7:15 PM 77.2 °F 46.9 °F 34% 30.03 in 10.0 mi NE 10.4 mph 16.1 mph N/A   Clear
7:16 PM 77.2 °F 46.9 °F 34% 30.03 in 10.0 mi NE 10.4 mph 16.1 mph N/A   Clear
7:35 PM 76.5 °F 47.7 °F 36% 30.03 in 10.0 mi ENE 8.1 mph - N/A   Clear
7:39 PM 76.1 °F 47.7 °F 37% 30.03 in 10.0 mi ENE 9.2 mph - N/A   Clear
7:58 PM 75.4 °F 46.0 °F 35% 30.03 in 10.0 mi ENE 8.1 mph - N/A   Clear
8:16 PM 74.3 °F 47.5 °F 39% 30.03 in 10.0 mi ENE 8.1 mph - N/A   Clear
8:35 PM 71.8 °F 49.5 °F 45% 30.03 in 10.0 mi ENE 5.8 mph - N/A   Clear
8:36 PM 71.8 °F 49.6 °F 45% 30.03 in 10.0 mi ENE 5.8 mph - N/A   Clear
8:55 PM 69.8 °F 49.6 °F 49% 30.04 in 10.0 mi NE 5.8 mph - N/A   Clear
9:19 PM 66.9 °F 49.8 °F 54% 30.05 in 10.0 mi ENE 4.6 mph - N/A   Clear
9:36 PM 66.2 °F 49.1 °F 54% 30.05 in 10.0 mi NE 4.6 mph - N/A   Clear
9:55 PM 66.6 °F 49.1 °F 53% 30.05 in 10.0 mi Calm Calm - N/A   Clear
9:56 PM 66.6 °F 49.1 °F 53% 30.05 in 10.0 mi Calm Calm - N/A   Clear
10:15 PM 66.9 °F 48.7 °F 52% 30.06 in 10.0 mi Calm Calm - N/A   Clear
10:16 PM 66.9 °F 48.7 °F 52% 30.06 in 10.0 mi Calm Calm - N/A   Clear
10:35 PM 64.4 °F 49.8 °F 59% 30.07 in 10.0 mi Calm Calm - N/A   Clear
10:40 PM 63.9 °F 49.8 °F 60% 30.07 in 10.0 mi Calm Calm - N/A   Clear
10:58 PM 63.7 °F 50.4 °F 62% 30.07 in 10.0 mi Calm Calm - N/A   Clear
11:16 PM 62.2 °F 50.9 °F 66% 30.08 in 10.0 mi Calm Calm - N/A   Clear
11:35 PM 62.6 °F 50.4 °F 64% 30.07 in 10.0 mi NE 3.5 mph - N/A   Clear
11:55 PM 59.7 °F 52.3 °F 77% 30.08 in 10.0 mi Calm Calm - N/A   Clear